Weather in Vrubivskyi

Ukraine / Luhansk Region     48°25′07″N   39°07′09″E
temp.,
°C
wind,
m/s
gust,
m/s
humid.,
%
clouds,
%
prec.,
mm/h
press.,
hPa
HPBL,
m
11 may, tue
tue1100:00+9nne81395100 1.1 1008790
03:00+7ne6992100 1.1 1010769
06:00+6nne4794100 0.3 1011519
09:00+7ne71085100 0.4 1012882
12:00+9ne9117899 0.5 10121494
15:00+7ne8988100 1.1 10131113
18:00+7ese2495100 1.8 1013435
21:00+6ese5119160 1.8 1015418
12 may, wed
wed1200:00+6ese61293100 0.1 1016758
03:00+7ese81291100 1.2 1017905
06:00+6ese6139373 1.5 1018502
09:00+8ese61189100 1.8 1018875
12:00+12se797292 0.3 10171344
15:00+15sse81060100 0.6 10161628
18:00+11sse3781100 0.1 1016251
21:00+11ese228499 0.2 101653
13 may, thu
thu1300:00+10ese228884 0.0 101515
03:00+9ese228980 0.0 101514
06:00+10ese228591 0.0 101539
09:00+17ese46645 0.0 1015533
12:00+22se56535 0.0 10141580
15:00+23se454879 0.0 10141901
18:00+21se3665100 0.0 1013215
21:00+16se3383100 0.0 101448
14 may, fri
fri1400:00+15ese338798 0.0 101328
03:00+14ese349165 0.0 101364
06:00+15ese311880 0.0 1013255
09:00+22se610605 0.0 1012620
12:00+26se68477 0.0 10121052
15:00+28se67445 0.0 10111233
18:00+25se59605 0.0 1011462
21:00+19sse33869 0.0 101128
15 may, sat
sat1500:00+17sse2287100 0.0 101013
03:00+17ssw229197 0.1 101113
06:00+18ssw2291100 0.0 101163
09:00+22sw346868 0.0 1011545
12:00+25sw3346100 0.0 10121359
15:00+27sw46392 0.0 10112331
18:00+24sw47521 0.0 1012278
21:00+18sw227348 0.0 101324